Weather in Studenka

Russia / Saratov Oblast     52°06′34″N   43°05′53″E
temp.,
°C
wind,
m/s
gust,
m/s
humid.,
%
clouds,
%
prec.,
mm/h
press.,
hPa
HPBL,
m
21 april, wed
wed2101:00+9se122393100 6.8 10061290
04:00+10sse10168930 12.8 1007680
07:00+10sse91590100 0.8 1007916
10:00+11s81282100 2.0 10091101
13:00+10s81485100 0.4 10101043
16:00+10sw101282100 0.4 1013995
19:00+9sw4979100 0.0 1016768
22:00+7sse379098 0.0 1018136
22 april, thu
thu2201:00+6sse49935 0.1 1018180
04:00+6ssw38915 0.1 1019143
07:00+6sw36895 0.0 1020133
10:00+11sw35715 0.0 1021566
13:00+14sw575513 0.9 10211681
16:00+15wsw575179 1.9 10211978
19:00+12w226772 0.0 102123
22:00+10sse117012 0.0 102210
23 april, fri
fri2301:00+9se22759 0.0 102215
04:00+8sse338127 0.0 102223
07:00+8se33795 0.0 102240
10:00+14sse345814 0.0 1022442
13:00+16sse3442100 0.0 10202296
16:00+15se2355100 0.0 1019819
19:00+14sse466675 0.1 1018353
22:00+10s488597 0.5 1018280
24 april, sat
sat2401:00+9sse488466 0.1 1016232
04:00+8sse398861 0.1 1015179
07:00+8sse4890100 0.0 1014215
10:00+13sse5869100 0.4 1012350
13:00+15ssw81152100 0.4 10101683
16:00+9w91184100 1.1 1011708
19:00+8w5970100 0.4 10121387
22:00+5wsw38835 0.6 1013245
25 april, sun
sun2501:00+4sw37865 0.0 1013152
04:00+3sw3687100 0.0 1014151
07:00+4ssw349192 0.2 1014303
10:00+6sw327797 0.3 1013718
13:00+7sw667598 0.8 1014838
16:00+9wsw455991 1.6 10141444
19:00+8w466847 0.9 1015795
22:00+5sw377797 1.1 1016135